When you browse on this site, cookies collect data to enhance your experience and personalize the content and advertising you see.
Visit our Privacy Policy to learn more. By continuing to use the site, you agree to this use of cookies and data.
  • In Latvia
  • List of Countries
  • For 7 days
  • Water Temperature
  • Weather Map
  • Weather Widgets
  • user-avatar
    Login

    Hourly Weather Barra

    Today, 23 October, Wednesday

    Time Temperature Precipitation Wind Pressure Humidity
    00:00 +21°C° 0.1 mm 4 mps 752 mmHg 86%
    01:00 +20°C° 0.1 mm 4 mps 751 mmHg 86%
    02:00 +20°C° 0.1 mm 4 mps 751 mmHg 86%
    03:00 +20°C° 0.1 mm 4 mps 751 mmHg 87%
    04:00 +21°C° 0 mm 4 mps 751 mmHg 84%
    05:00 +21°C° 0.1 mm 4 mps 752 mmHg 83%
    06:00 +22°C° 0.1 mm 3 mps 752 mmHg 81%
    07:00 +22°C° 0.1 mm 3 mps 752 mmHg 80%
    08:00 +24°C° 0.3 mm 3 mps 752 mmHg 76%
    09:00 +25°C° 0.3 mm 4 mps 752 mmHg 72%
    10:00 +26°C° 0 mm 4 mps 752 mmHg 70%
    11:00 +26°C° 0.5 mm 4 mps 751 mmHg 71%
    12:00 +26°C° 0.5 mm 4 mps 751 mmHg 72%
    13:00 +26°C° 0.5 mm 4 mps 750 mmHg 74%
    14:00 +25°C° 0.5 mm 4 mps 750 mmHg 75%
    15:00 +25°C° 0.5 mm 4 mps 750 mmHg 77%
    16:00 +23°C° 0 mm 4 mps 750 mmHg 80%
    17:00 +23°C° 0.7 mm 4 mps 750 mmHg 83%
    18:00 +22°C° 0.7 mm 4 mps 751 mmHg 86%
    19:00 +21°C° 0.7 mm 5 mps 751 mmHg 89%
    20:00 +21°C° 0.6 mm 5 mps 751 mmHg 89%
    21:00 +21°C° 0.6 mm 5 mps 752 mmHg 89%
    22:00 +21°C° 0 mm 4 mps 752 mmHg 88%
    23:00 +21°C° 0.1 mm 4 mps 752 mmHg 89%

    Tomorrow, 24 October, Thursday

    Time Temperature Precipitation Wind Pressure Humidity
    00:00 +20°C° 0.1 mm 4 mps 751 mmHg 89%
    01:00 +20°C° 0.1 mm 4 mps 751 mmHg 90%
    02:00 +20°C° 0.1 mm 4 mps 750 mmHg 90%
    03:00 +20°C° 0.1 mm 4 mps 750 mmHg 90%
    04:00 +20°C° 0.1 mm 3 mps 750 mmHg 90%
    05:00 +20°C° 0.1 mm 3 mps 751 mmHg 88%
    06:00 +21°C° 0.1 mm 3 mps 751 mmHg 86%
    07:00 +22°C° 0.1 mm 3 mps 751 mmHg 85%
    08:00 +23°C° 0.1 mm 4 mps 751 mmHg 78%
    09:00 +25°C° 0.1 mm 4 mps 751 mmHg 71%
    10:00 +26°C° 0.1 mm 5 mps 751 mmHg 64%
    11:00 +27°C° 0.1 mm 5 mps 751 mmHg 63%
    12:00 +27°C° 0.1 mm 4 mps 750 mmHg 62%
    13:00 +27°C° 0.1 mm 4 mps 750 mmHg 61%
    14:00 +27°C° 0.1 mm 4 mps 749 mmHg 62%
    15:00 +27°C° 0.1 mm 4 mps 749 mmHg 63%
    16:00 +26°C° 0.1 mm 4 mps 749 mmHg 64%
    17:00 +25°C° 0.1 mm 4 mps 749 mmHg 72%
    18:00 +23°C° 0.1 mm 4 mps 750 mmHg 80%
    19:00 +22°C° 0.1 mm 4 mps 750 mmHg 87%
    20:00 +22°C° 0.2 mm 4 mps 750 mmHg 88%
    21:00 +22°C° 0.2 mm 4 mps 751 mmHg 89%
    22:00 +22°C° 0.2 mm 4 mps 751 mmHg 90%
    23:00 +22°C° 0.3 mm 4 mps 751 mmHg 90%

    Day after tomorrow, 25 October, Friday

    Time Temperature Precipitation Wind Pressure Humidity
    00:00 +22°C° 0.3 mm 4 mps 750 mmHg 91%
    01:00 +22°C° 0.3 mm 4 mps 749 mmHg 91%
    02:00 +22°C° 0.3 mm 4 mps 749 mmHg 91%
    03:00 +22°C° 0.3 mm 4 mps 749 mmHg 92%
    04:00 +21°C° 0.3 mm 3 mps 749 mmHg 92%
    05:00 +22°C° 0.3 mm 3 mps 750 mmHg 92%
    06:00 +22°C° 0.3 mm 3 mps 750 mmHg 91%
    07:00 +22°C° 0.3 mm 3 mps 750 mmHg 90%
    08:00 +24°C° 0.3 mm 3 mps 750 mmHg 86%
    09:00 +25°C° 0.3 mm 3 mps 750 mmHg 82%
    10:00 +26°C° 0.3 mm 3 mps 750 mmHg 78%
    11:00 +27°C° 0.1 mm 3 mps 749 mmHg 73%
    12:00 +28°C° 0.1 mm 3 mps 749 mmHg 69%
    13:00 +28°C° 0.1 mm 3 mps 748 mmHg 65%
    14:00 +28°C° 0 mm 4 mps 748 mmHg 67%
    15:00 +27°C° 0 mm 4 mps 747 mmHg 69%
    16:00 +27°C° 0 mm 4 mps 747 mmHg 70%
    17:00 +26°C° 0 mm 4 mps 747 mmHg 76%
    18:00 +25°C° 0 mm 3 mps 748 mmHg 81%
    19:00 +24°C° 0 mm 3 mps 748 mmHg 86%
    20:00 +24°C° 0.1 mm 3 mps 748 mmHg 87%
    21:00 +24°C° 0.1 mm 3 mps 749 mmHg 88%
    22:00 +24°C° 0.1 mm 3 mps 749 mmHg 90%
    23:00 +22°C° 0.2 mm 3 mps 749 mmHg 91%

    26 October, Saturday

    Time Temperature Precipitation Wind Pressure Humidity
    00:00 +22°C° 0.2 mm 3 mps 749 mmHg 92%
    01:00 +22°C° 0.2 mm 3 mps 748 mmHg 93%
    02:00 +22°C° 0.2 mm 3 mps 748 mmHg 93%
    03:00 +22°C° 0.2 mm 3 mps 748 mmHg 94%
    04:00 +22°C° 0.2 mm 3 mps 748 mmHg 94%
    05:00 +22°C° 0.1 mm 3 mps 749 mmHg 92%
    06:00 +24°C° 0.1 mm 2 mps 749 mmHg 90%
    07:00 +24°C° 0.1 mm 2 mps 749 mmHg 88%
    08:00 +26°C° 0.2 mm 3 mps 749 mmHg 82%
    09:00 +27°C° 0.2 mm 3 mps 749 mmHg 76%
    10:00 +28°C° 0.2 mm 3 mps 749 mmHg 70%
    11:00 +28°C° 0.1 mm 3 mps 748 mmHg 69%
    12:00 +28°C° 0.1 mm 3 mps 748 mmHg 68%
    13:00 +28°C° 0.1 mm 3 mps 747 mmHg 67%
    14:00 +28°C° 0 mm 3 mps 747 mmHg 67%
    15:00 +28°C° 0 mm 3 mps 747 mmHg 68%
    16:00 +28°C° 0 mm 4 mps 746 mmHg 68%
    17:00 +27°C° 0 mm 3 mps 747 mmHg 74%
    18:00 +25°C° 0 mm 3 mps 747 mmHg 81%
    19:00 +24°C° 0 mm 2 mps 747 mmHg 87%
    20:00 +24°C° 0 mm 2 mps 748 mmHg 88%
    21:00 +24°C° 0 mm 2 mps 748 mmHg 90%
    22:00 +24°C° 0 mm 2 mps 749 mmHg 91%
    23:00 +23°C° 0.2 mm 2 mps 749 mmHg 92%

    27 October, Sunday

    Time Temperature Precipitation Wind Pressure Humidity
    00:00 +23°C° 0.2 mm 2 mps 748 mmHg 93%
    01:00 +22°C° 0.2 mm 3 mps 748 mmHg 94%
    02:00 +23°C° 0.1 mm 2 mps 748 mmHg 94%
    03:00 +23°C° 0.1 mm 2 mps 748 mmHg 93%
    04:00 +23°C° 0.1 mm 2 mps 748 mmHg 93%
    05:00 +23°C° 0.1 mm 2 mps 748 mmHg 91%
    06:00 +24°C° 0.1 mm 2 mps 748 mmHg 89%
    07:00 +24°C° 0.1 mm 1 mps 749 mmHg 87%
    08:00 +26°C° 0.1 mm 2 mps 749 mmHg 77%
    09:00 +28°C° 0.1 mm 2 mps 749 mmHg 67%
    10:00 +29°C° 0.1 mm 2 mps 748 mmHg 57%
    11:00 +30°C° 0.1 mm 3 mps 748 mmHg 57%
    12:00 +30°C° 0.1 mm 3 mps 748 mmHg 57%
    13:00 +30°C° 0.1 mm 3 mps 747 mmHg 56%
    14:00 +29°C° 0 mm 3 mps 747 mmHg 59%
    15:00 +29°C° 0 mm 3 mps 747 mmHg 61%
    16:00 +28°C° 0 mm 4 mps 746 mmHg 64%
    17:00 +27°C° 0 mm 3 mps 747 mmHg 72%
    18:00 +25°C° 0 mm 3 mps 747 mmHg 80%
    19:00 +24°C° 0 mm 2 mps 748 mmHg 88%
    20:00 +24°C° 0.1 mm 2 mps 748 mmHg 90%
    21:00 +23°C° 0.1 mm 2 mps 749 mmHg 92%
    22:00 +23°C° 0.1 mm 2 mps 749 mmHg 93%
    23:00 +23°C° 0.1 mm 2 mps 749 mmHg 93%

    28 October, Monday

    Time Temperature Precipitation Wind Pressure Humidity
    00:00 +23°C° 0.1 mm 2 mps 749 mmHg 93%
    01:00 +23°C° 0.1 mm 2 mps 748 mmHg 93%
    02:00 +21°C° 0.1 mm 3 mps 748 mmHg 93%
    03:00 +21°C° 0.1 mm 3 mps 748 mmHg 93%
    04:00 +21°C° 0.1 mm 3 mps 748 mmHg 92%
    05:00 +22°C° 0 mm 3 mps 748 mmHg 89%
    06:00 +22°C° 0 mm 3 mps 749 mmHg 86%
    07:00 +24°C° 0 mm 3 mps 749 mmHg 82%
    08:00 +25°C° 0 mm 3 mps 749 mmHg 72%
    09:00 +27°C° 0 mm 3 mps 749 mmHg 62%
    10:00 +28°C° 0 mm 3 mps 749 mmHg 51%
    11:00 +29°C° 0 mm 3 mps 749 mmHg 51%
    12:00 +29°C° 0 mm 3 mps 748 mmHg 50%
    13:00 +29°C° 0 mm 3 mps 748 mmHg 50%
    14:00 +29°C° 0 mm 4 mps 748 mmHg 54%
    15:00 +28°C° 0 mm 4 mps 747 mmHg 58%
    16:00 +28°C° 0 mm 4 mps 747 mmHg 61%
    17:00 +26°C° 0 mm 4 mps 748 mmHg 70%
    18:00 +25°C° 0 mm 3 mps 748 mmHg 79%
    19:00 +22°C° 0 mm 3 mps 749 mmHg 87%
    20:00 +22°C° 0.1 mm 3 mps 749 mmHg 90%
    21:00 +22°C° 0.1 mm 3 mps 749 mmHg 92%
    22:00 +22°C° 0.1 mm 3 mps 750 mmHg 94%
    23:00 +22°C° 0.3 mm 4 mps 749 mmHg 94%

    29 October, Tuesday

    Time Temperature Precipitation Wind Pressure Humidity
    00:00 +22°C° 0.3 mm 4 mps 749 mmHg 94%
    01:00 +22°C° 0.3 mm 4 mps 748 mmHg 95%
    02:00 +22°C° 0.5 mm 4 mps 748 mmHg 94%
    03:00 +22°C° 0.5 mm 4 mps 748 mmHg 94%
    04:00 +22°C° 0.5 mm 4 mps 748 mmHg 93%
    05:00 +22°C° 0.7 mm 4 mps 748 mmHg 92%
    06:00 +22°C° 0.7 mm 4 mps 748 mmHg 91%
    07:00 +23°C° 0.7 mm 4 mps 749 mmHg 91%
    08:00 +23°C° 0.7 mm 4 mps 749 mmHg 88%
    09:00 +25°C° 0.7 mm 5 mps 749 mmHg 85%
    10:00 +25°C° 0.7 mm 5 mps 749 mmHg 82%
    11:00 +26°C° 0.9 mm 5 mps 749 mmHg 81%
    12:00 +26°C° 0.9 mm 4 mps 749 mmHg 79%
    13:00 +26°C° 0.9 mm 4 mps 748 mmHg 78%
    14:00 +26°C° 0.5 mm 4 mps 748 mmHg 78%
    15:00 +26°C° 0.5 mm 4 mps 748 mmHg 79%
    16:00 +26°C° 0.5 mm 4 mps 748 mmHg 80%
    17:00 +25°C° 0.4 mm 4 mps 748 mmHg 83%
    18:00 +23°C° 0.4 mm 4 mps 748 mmHg 86%
    19:00 +22°C° 0.4 mm 4 mps 749 mmHg 89%
    20:00 +22°C° 0.4 mm 4 mps 749 mmHg 89%
    21:00 +22°C° 0.4 mm 5 mps 749 mmHg 89%
    22:00 +22°C° 0.4 mm 5 mps 750 mmHg 89%
    23:00 +22°C° 0.1 mm 5 mps 749 mmHg 89%
    Show more